This is the latest recevied weather packets stored in our database for station/object R8AHC-W2. If no packets are shown the sender has not sent any weather packets the latest 10 day(s).
| Time | Temp. | Humidity | Pressure | Rain* | Wind** | Luminosity | Snow |
|---|---|---|---|---|---|---|---|
| 1777737422 | 5° C | 61% | 1022 hPa | - | 4.47 m/s, 287° | - | - |
| 1777733827 | 6.11° C | 61% | 1021 hPa | - | 4.47 m/s, 287° | - | - |
| 1777730222 | 7.22° C | 61% | 1020 hPa | - | 4.47 m/s, 287° | - | - |
| 1777726622 | 4.44° C | 74% | 1019 hPa | - | 4.02 m/s, 285° | - | - |
| 1777723022 | 5.56° C | 74% | 1019 hPa | - | 4.02 m/s, 285° | - | - |
| 1777719423 | 6.67° C | 74% | 1019 hPa | - | 4.02 m/s, 285° | - | - |
| 1777715822 | 7.78° C | 74% | 1019 hPa | - | 4.02 m/s, 285° | - | - |
| 1777712222 | 2.78° C | 95% | 1019 hPa | - | 0.89 m/s, 287° | - | - |
| 1777708622 | 3.89° C | 95% | 1019 hPa | - | 0.89 m/s, 287° | - | - |
| 1777705022 | 0.56° C | 99% | 1018 hPa | - | 3.13 m/s, 310° | - | - |
| 1777701422 | 1.67° C | 99% | 1018 hPa | - | 3.13 m/s, 310° | - | - |
| 1777697822 | 2.78° C | 99% | 1017 hPa | - | 3.13 m/s, 310° | - | - |
| 1777694222 | -1.11° C | 96% | 1016 hPa | - | 1.79 m/s, 268° | - | - |
| 1777690622 | 0° C | 96% | 1016 hPa | - | 1.79 m/s, 268° | - | - |
| 1777687022 | 1.11° C | 96% | 1016 hPa | - | 1.79 m/s, 268° | - | - |
| 1777683422 | 2.22° C | 96% | 1015 hPa | - | 1.79 m/s, 268° | - | - |
| 1777679821 | 3.33° C | 96% | 1014 hPa | - | 1.79 m/s, 268° | - | - |
| 1777676222 | 0° C | 93% | 1014 hPa | - | 1.34 m/s, 230° | - | - |
| 1777672621 | 1.11° C | 93% | 1014 hPa | - | 1.34 m/s, 230° | - | - |
| 1777669022 | 2.22° C | 93% | 1014 hPa | - | 1.34 m/s, 230° | - | - |
| 1777665422 | -1.11° C | 91% | 1013 hPa | - | 0.89 m/s, 298° | - | - |
| 1777661822 | 0° C | 91% | 1013 hPa | - | 0.89 m/s, 298° | - | - |
| 1777658222 | 1.11° C | 91% | 1013 hPa | - | 0.89 m/s, 298° | - | - |
| 1777654622 | 2.22° C | 91% | 1013 hPa | - | 0.89 m/s, 298° | - | - |
| 1777651022 | 3.33° C | 91% | 1013 hPa | - | 0.89 m/s, 298° | - | - |
* Rain since midnight (hover to see other rain measurements)
** Current wind speed in m/s (hover to see current wind gust speed)